| time (UTC) | temp F | wind direction | speed knots | gust knots | rain 1hr in | rain 24hr in | rain mn in | humidity % | barometer mb |
| 20260503194908 | 63 | 116 | 2.6 | 5.2 | 0.00 | 0.00 | 0.00 | 71 | 1010.0 |
| 20260503194410 | 62 | 105 | 2.6 | 6.1 | 0.00 | 0.00 | 0.00 | 73 | 1010.0 |
| 20260503193909 | 61 | 125 | 1.7 | 5.2 | 0.00 | 0.00 | 0.00 | 73 | 1010.0 |
| 20260503193407 | 61 | 138 | 3.5 | 5.2 | 0.00 | 0.00 | 0.00 | 71 | 1010.0 |
| 20260503192908 | 62 | 101 | 4.3 | 6.1 | 0.00 | 0.00 | 0.00 | 70 | 1010.0 |
| 20260503192409 | 62 | 121 | 3.5 | 5.2 | 0.00 | 0.00 | 0.00 | 69 | 1010.0 |
| 20260503191907 | 62 | 117 | 2.6 | 4.3 | 0.00 | 0.00 | 0.00 | 69 | 1010.0 |
| 20260503191409 | 62 | 103 | 4.3 | 5.2 | 0.00 | 0.00 | 0.00 | 69 | 1010.0 |
| 20260503190907 | 61 | 105 | 1.7 | 5.2 | 0.00 | 0.00 | 0.00 | 69 | 1010.0 |
| 20260503190411 | 61 | 98 | 2.6 | 4.3 | 0.00 | 0.00 | 0.00 | 70 | 1010.0 |
| 20260503185907 | 61 | 123 | 3.5 | 4.3 | 0.00 | 0.00 | 0.00 | 69 | 1010.0 |
| 20260503185408 | 62 | 84 | 2.6 | 4.3 | 0.00 | 0.00 | 0.00 | 67 | 1010.0 |
| 20260503184907 | 62 | 99 | 1.7 | 3.5 | 0.00 | 0.00 | 0.00 | 68 | 1010.0 |
| 20260503184408 | 61 | 100 | 1.7 | 3.5 | 0.00 | 0.00 | 0.00 | 71 | 1010.0 |
| 20260503183907 | 60 | 94 | 0.9 | 3.5 | 0.00 | 0.00 | 0.00 | 71 | 1010.0 |
| 20260503183409 | 59 | 107 | 0.9 | 4.3 | 0.00 | 0.00 | 0.00 | 74 | 1010.0 |
| 20260503182908 | 59 | 103 | 2.6 | 4.3 | 0.00 | 0.00 | 0.00 | 73 | 1010.0 |
| 20260503182407 | 59 | 106 | 2.6 | 5.2 | 0.00 | 0.00 | 0.00 | 74 | 1010.0 |
| 20260503181908 | 59 | 97 | 3.5 | 6.1 | 0.00 | 0.00 | 0.00 | 76 | 1010.0 |
| 20260503181408 | 58 | 69 | 3.5 | 6.1 | 0.00 | 0.00 | 0.00 | 78 | 1010.0 |
| 20260503180907 | 58 | 68 | 4.3 | 7.8 | 0.00 | 0.00 | 0.00 | 77 | 1010.0 |
| 20260503180407 | 58 | 160 | 1.7 | 7.0 | 0.00 | 0.00 | 0.00 | 78 | 1010.0 |
| 20260503175909 | 58 | 73 | 2.6 | 5.2 | 0.00 | 0.00 | 0.00 | 79 | 1010.0 |
| 20260503175408 | 58 | 125 | 2.6 | 6.1 | 0.00 | 0.00 | 0.00 | 79 | 1010.0 |
| 20260503174908 | 59 | 129 | 3.5 | 6.1 | 0.00 | 0.00 | 0.00 | 77 | 1010.0 |
| 20260503174407 | 59 | 107 | 2.6 | 6.1 | 0.00 | 0.00 | 0.00 | 78 | 1010.0 |
| 20260503173907 | 59 | 114 | 2.6 | 5.2 | 0.00 | 0.00 | 0.00 | 79 | 1010.0 |
| 20260503173407 | 59 | 136 | 4.3 | 7.0 | 0.00 | 0.00 | 0.00 | 76 | 1010.0 |
| 20260503172908 | 59 | 121 | 4.3 | 4.3 | 0.00 | 0.00 | 0.00 | 76 | 1010.0 |
| 20260503172407 | 59 | 112 | 1.7 | 4.3 | 0.00 | 0.00 | 0.00 | 77 | 1010.0 |
| 20260503171907 | 59 | 94 | 2.6 | 5.2 | 0.00 | 0.00 | 0.00 | 77 | 1010.0 |
| 20260503171408 | 59 | 82 | 1.7 | 6.1 | 0.00 | 0.00 | 0.00 | 75 | 1010.0 |
| 20260503170908 | 59 | 107 | 2.6 | 4.3 | 0.00 | 0.00 | 0.00 | 75 | 1010.0 |
| 20260503170408 | 60 | 100 | 1.7 | 5.2 | 0.00 | 0.00 | 0.00 | 76 | 1010.0 |
| 20260503150910 | 56 | 108 | 2.6 | 3.5 | 0.00 | 0.00 | 0.00 | 82 | 1009.0 |
| 20260503150408 | 56 | 128 | 1.7 | 3.5 | 0.00 | 0.00 | 0.00 | 82 | 1009.0 |
| 20260503131407 | 55 | 86 | 1.7 | 3.5 | 0.00 | 0.00 | 0.00 | 80 | 1008.0 |
| 20260503130907 | 55 | 110 | 0.9 | 4.3 | 0.00 | 0.00 | 0.00 | 80 | 1008.0 |
| 20260503130409 | 55 | 106 | 1.7 | 3.5 | 0.00 | 0.00 | 0.00 | 80 | 1008.0 |
| 20260503110407 | 55 | 122 | 4.3 | 4.3 | 0.00 | 0.00 | 0.00 | 81 | 1008.0 |
| 20260503090408 | 55 | 107 | 1.7 | 5.2 | 0.00 | 0.00 | 0.00 | 82 | 1008.0 |
| 20260503081408 | 55 | 107 | 2.6 | 4.3 | 0.00 | 0.00 | 0.00 | 82 | 1008.0 |
| 20260503080907 | 55 | 83 | 1.7 | 2.6 | 0.00 | 0.00 | 0.00 | 81 | 1008.0 |
| 20260503080407 | 55 | 145 | 0.9 | 2.6 | 0.00 | 0.00 | 0.00 | 81 | 1009.0 |
| 20260503072909 | 55 | 99 | 2.6 | 4.3 | 0.00 | 0.00 | 0.00 | 81 | 1008.0 |
| 20260503072407 | 55 | 76 | 1.7 | 4.3 | 0.00 | 0.00 | 0.00 | 81 | 1008.0 |
| 20260503071907 | 55 | 136 | 1.7 | 2.6 | 0.00 | 0.00 | 0.00 | 81 | 1009.0 |
| 20260503071408 | 55 | 78 | 1.7 | 2.6 | 0.00 | 0.00 | 0.00 | 81 | 1008.0 |
| 20260503070907 | 55 | 92 | 2.6 | 3.5 | 0.00 | 0.00 | 0.00 | 82 | 1009.0 |
| 20260503070407 | 55 | 81 | 0.9 | 2.6 | 0.00 | 0.00 | 0.00 | 82 | 1009.0 |
| 20260503054909 | 56 | 102 | 1.7 | 2.6 | 0.00 | 0.00 | 0.00 | 82 | 1009.0 |
| 20260503054407 | 56 | 117 | 1.7 | 2.6 | 0.00 | 0.00 | 0.00 | 82 | 1009.0 |
| 20260503053907 | 56 | 113 | 1.7 | 2.6 | 0.00 | 0.00 | 0.00 | 82 | 1009.0 |
| 20260503053409 | 56 | 94 | 1.7 | 3.5 | 0.00 | 0.00 | 0.00 | 82 | 1009.0 |
| 20260503052907 | 56 | 73 | 0.9 | 2.6 | 0.00 | 0.00 | 0.00 | 82 | 1009.0 |
| 20260503052408 | 56 | 127 | 1.7 | 2.6 | 0.00 | 0.00 | 0.00 | 82 | 1009.0 |
| 20260503051908 | 56 | 67 | 0.9 | 3.5 | 0.00 | 0.00 | 0.00 | 81 | 1009.0 |
| 20260503051412 | 56 | 134 | 2.6 | 2.6 | 0.00 | 0.00 | 0.00 | 82 | 1009.0 |
| 20260503050907 | 56 | 43 | 0.0 | 3.5 | 0.00 | 0.00 | 0.00 | 82 | 1009.0 |
| 20260503050408 | 56 | 130 | 1.7 | 2.6 | 0.00 | 0.00 | 0.00 | 82 | 1009.0 |
| 20260503045907 | 56 | 111 | 2.6 | 4.3 | 0.00 | 0.00 | 0.00 | 82 | 1009.0 |
| 20260503045408 | 56 | 106 | 1.7 | 2.6 | 0.00 | 0.00 | 0.00 | 81 | 1009.0 |
| 20260503044907 | 56 | 124 | 0.9 | 2.6 | 0.00 | 0.00 | 0.00 | 80 | 1009.0 |
| 20260503044407 | 56 | 114 | 0.0 | 2.6 | 0.00 | 0.00 | 0.00 | 80 | 1009.0 |
| 20260503043908 | 56 | 101 | 2.6 | 3.5 | 0.00 | 0.00 | 0.00 | 80 | 1009.0 |
| 20260503043409 | 56 | 108 | 1.7 | 2.6 | 0.00 | 0.00 | 0.00 | 80 | 1009.0 |
| 20260503042910 | 56 | 89 | 1.7 | 3.5 | 0.00 | 0.00 | 0.00 | 80 | 1009.0 |
| 20260503042407 | 56 | 107 | 1.7 | 4.3 | 0.00 | 0.00 | 0.00 | 80 | 1009.0 |
| 20260503041908 | 56 | 106 | 2.6 | 4.3 | 0.00 | 0.00 | 0.00 | 80 | 1009.0 |
| 20260503041407 | 56 | 57 | 2.6 | 4.3 | 0.00 | 0.00 | 0.00 | 81 | 1009.0 |
| 20260503040907 | 56 | 91 | 3.5 | 4.3 | 0.00 | 0.00 | 0.00 | 81 | 1009.0 |
| 20260503040408 | 56 | 150 | 0.9 | 2.6 | 0.00 | 0.00 | 0.00 | 81 | 1009.0 |
| 20260503035908 | 56 | 138 | 1.7 | 3.5 | 0.00 | 0.00 | 0.00 | 81 | 1009.0 |
| 20260503035407 | 56 | 107 | 0.9 | 2.6 | 0.00 | 0.00 | 0.00 | 81 | 1009.0 |
| 20260503034908 | 56 | 74 | 1.7 | 2.6 | 0.00 | 0.00 | 0.00 | 82 | 1009.0 |
| 20260503034407 | 56 | 96 | 1.7 | 4.3 | 0.00 | 0.00 | 0.00 | 82 | 1009.0 |
| 20260503033908 | 56 | 99 | 1.7 | 2.6 | 0.00 | 0.00 | 0.00 | 82 | 1009.0 |
| 20260503033408 | 56 | 114 | 1.7 | 3.5 | 0.00 | 0.00 | 0.00 | 82 | 1008.0 |
| 20260503032907 | 56 | 82 | 0.9 | 4.3 | 0.00 | 0.00 | 0.00 | 82 | 1008.0 |
| 20260503032407 | 56 | 140 | 2.6 | 4.3 | 0.00 | 0.00 | 0.00 | 82 | 1008.0 |
| 20260503031909 | 56 | 85 | 0.9 | 3.5 | 0.00 | 0.00 | 0.00 | 82 | 1008.0 |
| 20260503031409 | 56 | 164 | 0.9 | 3.5 | 0.00 | 0.00 | 0.00 | 82 | 1008.0 |
| 20260503030907 | 56 | 130 | 1.7 | 5.2 | 0.00 | 0.00 | 0.00 | 82 | 1008.0 |
| 20260503030409 | 56 | 84 | 1.7 | 4.3 | 0.00 | 0.00 | 0.00 | 82 | 1008.0 |
| 20260503025907 | 56 | 104 | 2.6 | 4.3 | 0.00 | 0.00 | 0.00 | 82 | 1008.0 |
| 20260503025407 | 56 | 121 | 3.5 | 4.3 | 0.00 | 0.00 | 0.00 | 82 | 1008.0 |
| 20260503024907 | 56 | 167 | 1.7 | 2.6 | 0.00 | 0.00 | 0.00 | 82 | 1008.0 |
| 20260503024407 | 56 | 131 | 2.6 | 4.3 | 0.00 | 0.00 | 0.00 | 82 | 1008.0 |
| 20260503023908 | 56 | 122 | 4.3 | 5.2 | 0.00 | 0.00 | 0.00 | 81 | 1008.0 |
| 20260503023407 | 56 | 119 | 1.7 | 4.3 | 0.00 | 0.00 | 0.00 | 81 | 1008.0 |
| 20260503022907 | 56 | 76 | 2.6 | 3.5 | 0.00 | 0.00 | 0.00 | 80 | 1008.0 |
| 20260503022407 | 57 | 113 | 2.6 | 5.2 | 0.00 | 0.00 | 0.00 | 80 | 1008.0 |
| 20260503021907 | 57 | 125 | 2.6 | 4.3 | 0.00 | 0.00 | 0.00 | 80 | 1008.0 |
| 20260503021407 | 57 | 133 | 3.5 | 4.3 | 0.00 | 0.00 | 0.00 | 80 | 1008.0 |
| 20260503020909 | 57 | 126 | 2.6 | 5.2 | 0.00 | 0.00 | 0.00 | 81 | 1008.0 |
| 20260503020407 | 57 | 124 | 2.6 | 6.1 | 0.00 | 0.00 | 0.00 | 80 | 1008.0 |
| 20260503015909 | 57 | 144 | 1.7 | 5.2 | 0.00 | 0.00 | 0.00 | 80 | 1008.0 |
| 20260503015407 | 57 | 101 | 1.7 | 6.1 | 0.00 | 0.00 | 0.00 | 79 | 1008.0 |
| 20260503014907 | 57 | 150 | 1.7 | 4.3 | 0.00 | 0.00 | 0.00 | 79 | 1008.0 |
| 20260503014408 | 57 | 126 | 4.3 | 7.0 | 0.00 | 0.00 | 0.00 | 79 | 1008.0 |
| 20260503013907 | 57 | 56 | 1.7 | 6.1 | 0.00 | 0.00 | 0.00 | 79 | 1008.0 |
| 20260503013407 | 58 | 131 | 2.6 | 5.2 | 0.00 | 0.00 | 0.00 | 78 | 1008.0 |
| 20260503012907 | 58 | 119 | 2.6 | 4.3 | 0.00 | 0.00 | 0.00 | 78 | 1008.0 |
| 20260503012410 | 58 | 142 | 2.6 | 2.6 | 0.00 | 0.00 | 0.00 | 78 | 1008.0 |
| 20260503011907 | 58 | 98 | 2.6 | 4.3 | 0.00 | 0.00 | 0.00 | 78 | 1008.0 |
| 20260503011407 | 58 | 82 | 2.6 | 6.1 | 0.00 | 0.00 | 0.00 | 77 | 1008.0 |
| 20260503010907 | 58 | 95 | 1.7 | 7.8 | 0.00 | 0.00 | 0.00 | 76 | 1008.0 |
| 20260503010407 | 58 | 112 | 2.6 | 5.2 | 0.00 | 0.00 | 0.00 | 76 | 1008.0 |
| 20260503005909 | 58 | 102 | 3.5 | 4.3 | 0.00 | 0.00 | 0.00 | 75 | 1009.0 |
| 20260503005407 | 59 | 106 | 2.6 | 5.2 | 0.00 | 0.00 | 0.00 | 75 | 1008.0 |
| 20260503004907 | 59 | 104 | 0.9 | 7.8 | 0.00 | 0.00 | 0.00 | 75 | 1008.0 |
| 20260503004407 | 59 | 124 | 3.5 | 8.7 | 0.00 | 0.00 | 0.00 | 74 | 1008.0 |
| 20260503003907 | 60 | 89 | 4.3 | 6.1 | 0.00 | 0.00 | 0.00 | 73 | 1008.0 |
| 20260503003408 | 60 | 120 | 4.3 | 6.1 | 0.00 | 0.00 | 0.00 | 73 | 1008.0 |
| 20260503002907 | 60 | 91 | 3.5 | 4.3 | 0.00 | 0.00 | 0.00 | 73 | 1008.0 |
| 20260503002407 | 60 | 106 | 2.6 | 5.2 | 0.00 | 0.00 | 0.00 | 73 | 1008.0 |
| 20260503001907 | 60 | 100 | 3.5 | 7.0 | 0.00 | 0.00 | 0.00 | 73 | 1009.0 |
| 20260503001407 | 60 | 103 | 4.3 | 6.1 | 0.00 | 0.00 | 0.00 | 72 | 1009.0 |
| 20260503000908 | 60 | 96 | 4.3 | 6.1 | 0.00 | 0.00 | 0.00 | 73 | 1009.0 |
| 20260503000411 | 60 | 101 | 4.3 | 5.2 | 0.00 | 0.00 | 0.00 | 72 | 1009.0 |
| 20260502235908 | 61 | 105 | 4.3 | 5.2 | 0.00 | 0.00 | 0.00 | 72 | 1009.0 |
| 20260502235408 | 61 | 93 | 1.7 | 6.1 | 0.00 | 0.00 | 0.00 | 70 | 1009.0 |
| 20260502234908 | 61 | 68 | 2.6 | 6.1 | 0.00 | 0.00 | 0.00 | 72 | 1009.0 |
| 20260502234407 | 60 | 91 | 2.6 | 6.1 | 0.00 | 0.00 | 0.00 | 72 | 1009.0 |
| 20260502233907 | 61 | 102 | 2.6 | 6.1 | 0.00 | 0.00 | 0.00 | 73 | 1009.0 |
| 20260502233407 | 61 | 113 | 4.3 | 6.1 | 0.00 | 0.00 | 0.00 | 72 | 1009.0 |
| 20260502232907 | 61 | 98 | 4.3 | 6.1 | 0.00 | 0.00 | 0.00 | 73 | 1009.0 |
| 20260502232408 | 61 | 98 | 5.2 | 7.0 | 0.00 | 0.00 | 0.00 | 73 | 1009.0 |
| 20260502231907 | 60 | 86 | 2.6 | 8.7 | 0.00 | 0.00 | 0.00 | 74 | 1009.0 |
| 20260502231407 | 60 | 63 | 7.0 | 7.0 | 0.00 | 0.00 | 0.00 | 74 | 1009.0 |
| 20260502230907 | 60 | 83 | 5.2 | 8.7 | 0.00 | 0.00 | 0.00 | 75 | 1009.0 |
| 20260502230407 | 60 | 103 | 5.2 | 7.8 | 0.00 | 0.00 | 0.00 | 74 | 1009.0 |
| 20260502225907 | 60 | 84 | 4.3 | 7.8 | 0.00 | 0.00 | 0.00 | 74 | 1009.0 |
| 20260502225407 | 60 | 86 | 4.3 | 7.0 | 0.00 | 0.00 | 0.00 | 74 | 1009.0 |
| 20260502224908 | 60 | 115 | 4.3 | 6.1 | 0.00 | 0.00 | 0.00 | 74 | 1010.0 |
| 20260502224409 | 60 | 92 | 1.7 | 7.8 | 0.00 | 0.00 | 0.00 | 73 | 1009.0 |
| 20260502223907 | 60 | 120 | 4.3 | 7.0 | 0.00 | 0.00 | 0.00 | 73 | 1010.0 |
| 20260502223407 | 60 | 94 | 3.5 | 7.0 | 0.00 | 0.00 | 0.00 | 74 | 1010.0 |
| 20260502222907 | 60 | 108 | 4.3 | 7.8 | 0.00 | 0.00 | 0.00 | 73 | 1010.0 |
| 20260502222407 | 61 | 82 | 4.3 | 7.8 | 0.00 | 0.00 | 0.00 | 72 | 1010.0 |
| 20260502221908 | 61 | 101 | 2.6 | 4.3 | 0.00 | 0.00 | 0.00 | 73 | 1010.0 |
| 20260502221407 | 60 | 108 | 3.5 | 9.6 | 0.00 | 0.00 | 0.00 | 74 | 1010.0 |
| 20260502220907 | 61 | 87 | 3.5 | 7.0 | 0.00 | 0.00 | 0.00 | 72 | 1010.0 |
| 20260502220408 | 60 | 93 | 2.6 | 4.3 | 0.00 | 0.00 | 0.00 | 74 | 1010.0 |
| 20260502215907 | 60 | 110 | 2.6 | 9.6 | 0.00 | 0.00 | 0.00 | 73 | 1010.0 |
| 20260502215407 | 60 | 69 | 7.8 | 10.4 | 0.00 | 0.00 | 0.00 | 74 | 1010.0 |
| 20260502214907 | 60 | 100 | 7.0 | 7.8 | 0.00 | 0.00 | 0.00 | 73 | 1010.0 |
| 20260502214407 | 60 | 110 | 2.6 | 4.3 | 0.00 | 0.00 | 0.00 | 74 | 1010.0 |
| 20260502213907 | 60 | 91 | 1.7 | 7.0 | 0.00 | 0.00 | 0.00 | 74 | 1010.0 |
| 20260502213407 | 60 | 100 | 3.5 | 6.1 | 0.00 | 0.00 | 0.00 | 73 | 1010.0 |
| 20260502212907 | 60 | 110 | 6.1 | 13.0 | 0.00 | 0.00 | 0.00 | 73 | 1010.0 |
| 20260502212407 | 60 | 72 | 3.5 | 6.1 | 0.00 | 0.00 | 0.00 | 71 | 1010.0 |
| 20260502211907 | 61 | 108 | 7.0 | 7.8 | 0.00 | 0.00 | 0.00 | 71 | 1010.0 |
| 20260502211408 | 60 | 104 | 2.6 | 7.8 | 0.00 | 0.00 | 0.00 | 72 | 1010.0 |
| 20260502210907 | 61 | 98 | 5.2 | 8.7 | 0.00 | 0.00 | 0.00 | 70 | 1010.0 |
| 20260502210407 | 60 | 92 | 2.6 | 6.1 | 0.00 | 0.00 | 0.00 | 75 | 1010.0 |
| 20260502205907 | 59 | 97 | 4.3 | 7.0 | 0.00 | 0.00 | 0.00 | 75 | 1010.0 |
| 20260502205408 | 60 | 98 | 5.2 | 7.8 | 0.00 | 0.00 | 0.00 | 73 | 1011.0 |
| 20260502204907 | 60 | 96 | 1.7 | 6.1 | 0.00 | 0.00 | 0.00 | 73 | 1011.0 |
| 20260502204408 | 61 | 97 | 2.6 | 7.0 | 0.00 | 0.00 | 0.00 | 73 | 1011.0 |
| 20260502203907 | 60 | 95 | 5.2 | 7.0 | 0.00 | 0.00 | 0.00 | 74 | 1011.0 |
| 20260502203407 | 60 | 89 | 6.1 | 6.1 | 0.00 | 0.00 | 0.00 | 74 | 1011.0 |
| 20260502202907 | 60 | 89 | 3.5 | 6.1 | 0.00 | 0.00 | 0.00 | 74 | 1011.0 |
| 20260502202408 | 60 | 123 | 2.6 | 5.2 | 0.00 | 0.00 | 0.00 | 75 | 1011.0 |
| 20260502201907 | 60 | 114 | 2.6 | 6.1 | 0.00 | 0.00 | 0.00 | 76 | 1011.0 |
| 20260502201408 | 59 | 100 | 2.6 | 5.2 | 0.00 | 0.00 | 0.00 | 77 | 1011.0 |
| 20260502200908 | 59 | 121 | 7.0 | 7.8 | 0.00 | 0.00 | 0.00 | 77 | 1011.0 |
| 20260502200408 | 59 | 116 | 1.7 | 6.1 | 0.00 | 0.00 | 0.00 | 79 | 1011.0 |
| 20260502195907 | 58 | 74 | 4.3 | 7.8 | 0.00 | 0.00 | 0.00 | 78 | 1011.0 |
| 20260502195407 | 58 | 139 | 4.3 | 5.2 | 0.00 | 0.00 | 0.00 | 79 | 1011.0 |